Location: Liscomb Game Sanctuary
(45.1633°N, 62.5575°W)
Time: 04:18:14

Thor Agena Rocket - Pass Details

Date: 22 February 2018
Orbit: 759 x 809 km, 99.1° (Epoch: 22 March)

Event Time Altitude Azimuth Distance (km) Brightness Sun altitude
Rises 19:20:32 0° 17° (NNE) 3,259 6.6 -17.0°
Reaches altitude 10° 19:22:54 10° 21° (NNE) 2,321 5.8 -17.4°
Maximum altitude 19:27:58 64° 102° (ESE) 846 3.4 -18.3°
Drops below altitude 10° 19:32:57 10° 184° (S) 2,285 5.9 -19.2°
Sets 19:35:15 0° 188° (S) 3,204 6.8 -19.6°
